sat.trackr.live / text

‹ back to catalog

STARLINK-5449

NORAD 54780 · 2022-175Y

PAYLOAD ACTIVE UNKNOWN

§ Identity

Operator
Country
US
Launch date
2022-12-17
Launch site
AFETR
Launch vehicle
Mass (kg)
RCS (m²)

Purposes: comms

External: N2YO · Heavens-Above · Gunter

§ Orbital elements

Epoch: 2026-05-25T03:34:57.362592Z

Period
95.44 min
Inclination
53.2134°
Eccentricity
0.0001418
Mean motion
15.08836965 rev/d
Perigee alt
538.8 km
Apogee alt
540.7 km
Semi-major
6,917.9 km
B*
6.3348e-5
RAAN
45.7809°
Arg perigee
82.2905°
Mean anomaly
277.8248°
Rev number
19,167

§ Raw data

STARLINK-54491 54780U 22175Y   26145.14927503  .00000720  00000+0  63348-4 0  99962 54780  53.2134  45.7809 0001418  82.2905 277.8248 15.08836965191670

JSON: /api/v1/satellites/54780 · /tle

For live sub-satellite position, see the globe view (requires WebGL).

§ Visibility from observer

Set your observer location to see the next 7 days of passes ≥ 10°. The values pass through the URL so the page stays shareable.

No JS? Fill the form by hand. The geolocation button needs JavaScript.